Regional Weather Roundup
Issued by NWS Raleigh/Durham, NC

Home | Current Version | Previous Version | Text Only | Print | Product List | Glossary On
Versions: 1 2 3 4 5 6 7 8 9 10 11 12 13 14 15 16 17 18 19 20 21 22 23 24 25 26 27 28 29 30 31
000
ASUS42 KRAH 221510
RWRRAH
NORTH CAROLINA WEATHER ROUNDUP
NATIONAL WEATHER SERVICE RALEIGH NC
1100 AM EDT WED OCT 22 2014

NOTE: "FAIR" INDICATES FEW OR NO CLOUDS BELOW 12,000 FEET WITH NO
SIGNIFICANT WEATHER AND/OR OBSTRUCTIONS TO VISIBILITY.

NCZ001-053-055-056-065-067-221600-
WESTERN NORTH CAROLINA

CITY           SKY/WX    TMP DP  RH WIND       PRES   REMARKS
ASHEVILLE      NOT AVBL
JEFFERSON      NOT AVBL
HICKORY        NOT AVBL
RUTHERFORDTON  NOT AVBL
MOUNT AIRY     NOT AVBL
BOONE          NOT AVBL
$$

NCZ021-022-025-041-071-084-088-221600-
CENTRAL NORTH CAROLINA

CITY           SKY/WX    TMP DP  RH WIND       PRES   REMARKS
CHARLOTTE      NOT AVBL
GREENSBORO     NOT AVBL
WINSTON-SALEM  NOT AVBL
RALEIGH-DURHAM NOT AVBL
FORT BRAGG     NOT AVBL
FAYETTEVILLE   NOT AVBL
BURLINGTON     NOT AVBL
LAURINBURG     NOT AVBL
$$

NCZ011-015-027-028-043-044-047-080-103-221600-
NORTHEASTERN NORTH CAROLINA

CITY           SKY/WX    TMP DP  RH WIND       PRES   REMARKS
ROCKY MT-WILSO NOT AVBL
GREENVILLE     NOT AVBL
ELIZABETH CITY NOT AVBL
MANTEO         NOT AVBL
CAPE HATTERAS  NOT AVBL
$$

NCZ078-087-090-091-093-098-101-221600-
SOUTHEASTERN NORTH CAROLINA

CITY           SKY/WX    TMP DP  RH WIND       PRES   REMARKS
LUMBERTON      NOT AVBL
GOLDSBORO      NOT AVBL
KENANSVILLE    NOT AVBL
NEW BERN       NOT AVBL
CHERRY POINT   NOT AVBL
BEAUFORT       NOT AVBL
JACKSONVILLE   NOT AVBL
WILMINGTON     NOT AVBL
$$




USA.gov is the U.S. government's official web portal to all federal, state and local government web resources and services.